Погода в Овруче

Украина / Житомирская область     51°19′12″N   28°47′58″E
темп.,
°C
ветер,
м/с
пор.,
м/с
влажн.,
%
обл.,
%
осадки,
мм/ч
давл.,
гПа
погр.,
м
11 мая, вт
вт1100:00+8юв23750 0.0 102545
03:00+6вюв22750 0.0 102523
06:00+6в22800 0.0 102524
09:00+12в35590 0.0 1024417
12:00+17всв34410 0.0 1022921
15:00+20всв34442 0.0 10211197
18:00+20всв45544 0.0 10201179
21:00+14св37795 0.0 1019112
12 мая, ср
ср1200:00+12в38950 0.0 1019173
03:00+10в5109735 0.0 1019442
06:00+7в411965 0.0 1020397
09:00+8вюв6979100 0.0 1020853
12:00+11вюв61064100 0.0 10191322
15:00+12вюв586988 0.0 10181093
18:00+14вюв4663100 0.1 10151360
21:00+11в2275100 0.1 101434
13 мая, чт
чт1300:00+10ююв2480100 0.0 1012103
03:00+8ю2588100 0.0 1011137
06:00+8юв3789100 0.0 1010243
09:00+11ююв597092 0.0 1010710
12:00+14ююв71056100 0.0 10091402
15:00+15ююв71163100 0.1 10091326
18:00+15ююв61170100 0.0 1008846
21:00+13ююв5137871 0.0 1009428
14 мая, пт
пт1400:00+11ююв41292100 0.1 1009417
03:00+12юв41190100 0.4 1009398
06:00+10юв399762 0.0 1008235
09:00+14ююв5878100 0.1 1008824
12:00+17ю576572 0.0 10081154
15:00+19ююз455965 0.4 10081484
18:00+19юз245975 0.1 10081323
21:00+13юз228647 0.2 100916
15 мая, сб
сб1500:00+12ююз2293100 0.4 101019
03:00+11зюз229369 0.4 101018
06:00+10сз3695100 0.0 1011154
09:00+14сз3574100 0.0 1012454
12:00+18з3457100 0.0 10121232
15:00+21юз464889 0.0 10091729
18:00
21:00+13зсз22705 0.0 101224